World > North America > United States > Oregon

Eagle Creek, Oregon Regional Weather

Lat: 45.37N, Lon: 122.37W
Wx Zone: ORZ006Web Search

Helpful Tip: You can add this page to Bookmarks by pressing the Ctrl key & d key at the same time. Mac users press command & d.

Feedback


°F Click to change Eagle Creek hourly weather to Imperial units.Click to change Eagle Creek hourly weather to Metric units. °C
Eagle Creek Weather Map
UTC Time: 5/5/2021, 22:37
Your Time:

Eagle Creek, OR Regional Weather

Expires:202105052200;;651520
ASUS46 KPQR 052110
RWROR 

OREGON REGIONAL WEATHER ROUNDUP
NATIONAL WEATHER SERVICE PORTLAND OR
200 PM PDT WED MAY 05 2021

NOTE: "FAIR" INDICATES FEW OR NO CLOUDS BELOW 12,000 FEET WITH
NO SIGNIFICANT WEATHER AND/OR OBSTRUCTIONS TO VISIBILITY.


ORZ001>013-052200-
NORTHWEST OREGON

  
CITY           SKY/WX    TMP DP  RH WIND       PRES   REMARKS
ASTORIA        PTSUNNY   73  50  44 N9        29.88F                  
TILLAMOOK      PTSUNNY   66  46  48 NW6       29.92R                  
NEWPORT        PTSUNNY   59  45  58 NW3       29.94S                  
FLORENCE       FAIR      65  44  45 W7        29.91F                  
PORTLAND       CLOUDY    75  46  35 NW5       29.89F                  
VANCOUVER WA   PTSUNNY   73  45  36 W3        29.88F                  
SCAPPOOSE      PTSUNNY   75  46  35 CALM      29.89F                  
HILLSBORO      PTSUNNY   77  44  30 SE6       29.89F                  
AURORA         PTSUNNY   76  48  37 CALM      29.89F                  
MCMINNVILLE    PTSUNNY   74  47  38 CALM      29.89F                  
SALEM          PTSUNNY   74  47  38 NE5       29.88F                  
CORVALLIS      PTSUNNY   71  51  49 CALM      29.90F                  
EUGENE         PTSUNNY   70  51  51 VRB5      29.89F                  
CRESWELL       SUNNY     73  52  46 VRB5      29.88F                  
$$


SKY/WX - Weather  TMP - Temperature  DP - Dew Point  RH - Relative Humidity
WIND - Wind Direction/Speed PRES - Barometric Pressure VSB - Visibility
WCI - Wind Chill Index E13G22 Wind - East Wind 13 mph/Gusts of 22 mph